Wray Municipal Airport, CO

3:08 AM MST on November 25, 2017 (GMT -0700)
Wray Municipal Airport

Weather History for K2V5 - December, 2013

Change the Weather History Date:

Wednesday, December 11, 2013

  Actual Average (KSYF) Record (KSYF)
Temperature  
Mean Temperature 24 °F -  
Max Temperature 40 °F 48 °F 66 °F (2014)
Min Temperature 7 °F 18 °F 10 °F (2013)
Degree Days  
Heating Degree Days 42    
Moisture  
Dew Point 14 °F    
Average Humidity 76    
Maximum Humidity 93    
Minimum Humidity 39    
Precipitation  
Precipitation 0.00 in - - ()
Sea Level Pressure  
Sea Level Pressure 30.35 in    
Wind  
Wind Speed 7 mph (SW)    
Max Wind Speed 20 mph    
Max Gust Speed 26 mph    
Visibility 10 miles    
Events      
Averages and records for this station are not official NWS values.
T = Trace of Precipitation, MM = Missing Value Source: NWS Daily Summary

Daily Weather History Graph

Daily Weather History Graph

Search for Another Location

Airport or City:

Trip Planner

Search our weather history database for the weather conditions in past years. The results will help you decide how hot, cold, wet, or windy it might be!

Date:

Astronomy

Dec. 11, 2013 Rise Set
Actual Time 7:01 AM MST 4:23 PM MST
Civil Twilight 6:30 AM MST 4:54 PM MST
Nautical Twilight 5:56 AM MST 5:28 PM MST
Astronomical Twilight 5:23 AM MST 6:01 PM MST
Moon 12:58 PM MST (12/11) 1:24 AM MST (12/11)
Length of Visible Light 10h 23m
Length of Day
9h 22m
Waxing Gibbous, 72% of the Moon is Illuminated
Dec 11
Waxing Gibbous
Dec 17
Full
Dec 25
Last Quarter
Jan 1
New
Jan 7
First Quarter

Hourly Weather History & Observations

Time (MST) Temp. Windchill Dew Point Humidity Pressure Visibility Wind Dir Wind Speed Gust Speed Precip Events Conditions
12:15 AM 19.9 °F 12.1 °F 16.7 °F 87% 30.28 in 10.0 mi NNE 5.8 mph - N/A   Clear
12:35 AM 18.5 °F 13.3 °F 15.4 °F 88% 30.30 in 10.0 mi North 3.5 mph - N/A   Clear
12:55 AM 19.2 °F - 16.3 °F 89% 30.30 in 10.0 mi Calm Calm - N/A   Clear
1:15 AM 16.2 °F 9.0 °F 13.6 °F 90% 30.31 in 10.0 mi NNW 4.6 mph - N/A   Clear
1:35 AM 14.7 °F 5.9 °F 12.9 °F 93% 30.31 in 10.0 mi NNW 5.8 mph - N/A   Mostly Cloudy
1:55 AM 12.9 °F 2.6 °F 10.8 °F 91% 30.32 in 10.0 mi NNW 6.9 mph - N/A   Scattered Clouds
2:15 AM 13.1 °F 1.8 °F 10.8 °F 90% 30.34 in 10.0 mi North 8.1 mph - N/A   Scattered Clouds
2:35 AM 12.4 °F 0.0 °F 9.9 °F 90% 30.34 in 10.0 mi North 9.2 mph - N/A   Scattered Clouds
2:55 AM 12.4 °F 2.0 °F 10.2 °F 91% 30.35 in 10.0 mi North 6.9 mph - N/A   Clear
3:15 AM 12.2 °F 2.9 °F 9.5 °F 89% 30.36 in 10.0 mi North 5.8 mph - N/A   Clear
3:35 AM 12.2 °F 2.9 °F 10.0 °F 91% 30.36 in 10.0 mi North 5.8 mph - N/A   Clear
3:55 AM 11.8 °F 5.7 °F 10.0 °F 92% 30.36 in 10.0 mi NNW 3.5 mph - N/A   Clear
4:15 AM 11.5 °F - 9.5 °F 92% 30.37 in 10.0 mi Calm Calm - N/A   Clear
4:35 AM 8.8 °F 2.2 °F 7.0 °F 92% 30.38 in 10.0 mi WSW 3.5 mph - N/A   Clear
4:55 AM 9.3 °F 1.0 °F 6.8 °F 89% 30.38 in 10.0 mi West 4.6 mph - N/A   Mostly Cloudy
5:15 AM 9.0 °F 0.6 °F 6.4 °F 89% 30.40 in 10.0 mi WNW 4.6 mph - N/A   Overcast
5:35 AM 9.0 °F 0.6 °F 6.4 °F 89% 30.40 in 10.0 mi SSW 4.6 mph - N/A   Overcast
5:55 AM 7.9 °F -0.7 °F 5.4 °F 89% 30.40 in 10.0 mi WSW 4.6 mph - N/A   Scattered Clouds
6:15 AM 8.1 °F -0.5 °F 5.7 °F 90% 30.41 in 10.0 mi WSW 4.6 mph - N/A   Scattered Clouds
6:35 AM 8.2 °F 1.6 °F 5.9 °F 90% 30.42 in 10.0 mi SW 3.5 mph - N/A   Scattered Clouds
6:55 AM 8.2 °F -0.3 °F 6.6 °F 93% 30.42 in 10.0 mi WSW 4.6 mph - N/A   Scattered Clouds
7:15 AM 7.5 °F -2.6 °F 5.2 °F 90% 30.42 in 10.0 mi West 5.8 mph - N/A   Clear
7:35 AM 8.1 °F 1.4 °F 5.7 °F 90% 30.44 in 10.0 mi WSW 3.5 mph - N/A   Clear
7:55 AM 8.6 °F 0.1 °F 5.9 °F 89% 30.44 in 10.0 mi West 4.6 mph - N/A   Clear
8:15 AM 12.0 °F 4.1 °F 9.3 °F 89% 30.45 in 10.0 mi West 4.6 mph - N/A   Clear
8:35 AM 14.2 °F 8.4 °F 11.3 °F 88% 30.46 in 10.0 mi SSW 3.5 mph - N/A   Clear
8:55 AM 16.5 °F - 13.5 °F 88% 30.46 in 10.0 mi Calm Calm - N/A   Scattered Clouds
9:15 AM 18.3 °F 9.1 °F 16.3 °F 92% 30.46 in 10.0 mi WSW 6.9 mph - N/A   Mostly Cloudy
9:35 AM 21.2 °F 12.6 °F 19.0 °F 91% 30.46 in 10.0 mi South 6.9 mph - N/A   Overcast
9:55 AM 23.4 °F 12.8 °F 19.6 °F 85% 30.46 in 10.0 mi South 10.4 mph - N/A   Overcast
10:15 AM 24.3 °F 13.3 °F 20.1 °F 84% 30.46 in 10.0 mi South 11.5 mph - N/A   Overcast
10:35 AM 26.4 °F 16.6 °F 19.6 °F 75% 30.44 in 10.0 mi South 10.4 mph - N/A   Mostly Cloudy
10:55 AM 27.1 °F 15.4 °F 19.2 °F 72% 30.44 in 10.0 mi South 15.0 mph - N/A   Scattered Clouds
11:15 AM 28.9 °F 18.2 °F 19.8 °F 69% 30.41 in 10.0 mi South 13.8 mph 19.6 mph N/A   Scattered Clouds
11:35 AM 30.7 °F 20.0 °F 19.8 °F 64% 30.40 in 10.0 mi South 15.0 mph 19.6 mph N/A   Clear
11:55 AM 32.7 °F 23.4 °F 20.7 °F 61% 30.38 in 10.0 mi SSW 12.7 mph 17.3 mph N/A   Clear
12:15 PM 34.7 °F 25.5 °F 20.5 °F 56% 30.37 in 10.0 mi South 13.8 mph 20.7 mph N/A   Clear
12:35 PM 35.4 °F 26.0 °F 19.6 °F 53% 30.35 in 10.0 mi South 15.0 mph 21.9 mph N/A   Clear
12:55 PM 37.0 °F 28.1 °F 19.2 °F 49% 30.34 in 10.0 mi SSW 15.0 mph 21.9 mph N/A   Clear
1:15 PM 38.3 °F 29.3 °F 17.8 °F 44% 30.33 in 10.0 mi South 16.1 mph 24.2 mph N/A   Clear
1:35 PM 38.5 °F 29.2 °F 18.3 °F 44% 30.32 in 10.0 mi SSW 17.3 mph 24.2 mph N/A   Clear
1:55 PM 39.7 °F 30.6 °F 19.4 °F 44% 30.31 in 10.0 mi SSW 18.4 mph - N/A   Clear
2:15 PM 40.1 °F 30.7 °F 17.6 °F 40% 30.30 in 10.0 mi SSW 19.6 mph 26.5 mph N/A   Clear
2:35 PM 40.3 °F 31.9 °F 17.4 °F 40% 30.30 in 10.0 mi SW 16.1 mph - N/A   Clear
2:55 PM 40.3 °F 31.3 °F 17.1 °F 39% 30.30 in 10.0 mi SSW 18.4 mph 25.3 mph N/A   Clear
3:15 PM 40.1 °F 31.3 °F 17.2 °F 40% 30.30 in 10.0 mi SW 17.3 mph 23.0 mph N/A   Clear
3:35 PM 39.4 °F 30.7 °F 17.8 °F 42% 30.29 in 10.0 mi SW 16.1 mph - N/A   Clear
3:55 PM 38.3 °F 30.5 °F 18.3 °F 45% 30.29 in 10.0 mi SW 12.7 mph 17.3 mph N/A   Clear
4:15 PM 36.5 °F 29.7 °F 18.3 °F 48% 30.29 in 10.0 mi SW 9.2 mph - N/A   Clear
4:35 PM 32.5 °F 25.5 °F 18.3 °F 56% 30.30 in 10.0 mi SSW 8.1 mph - N/A   Clear
4:55 PM 30.7 °F 23.3 °F 18.1 °F 60% 30.30 in 10.0 mi SSW 8.1 mph - N/A   Clear
5:15 PM 29.7 °F 21.3 °F 17.6 °F 61% 30.30 in 10.0 mi SSW 9.2 mph - N/A   Clear
5:35 PM 29.1 °F 20.6 °F 17.6 °F 62% 30.30 in 10.0 mi SW 9.2 mph - N/A   Clear
5:55 PM 28.2 °F 19.5 °F 17.4 °F 64% 30.31 in 10.0 mi SW 9.2 mph - N/A   Clear
6:15 PM 28.0 °F 19.3 °F 17.6 °F 65% 30.31 in 10.0 mi WSW 9.2 mph - N/A   Clear
6:35 PM 24.8 °F 17.9 °F 16.3 °F 70% 30.31 in 10.0 mi WSW 5.8 mph - N/A   Clear
6:55 PM 21.9 °F 13.4 °F 15.6 °F 77% 30.31 in 10.0 mi WSW 6.9 mph - N/A   Clear
7:15 PM 23.4 °F 15.2 °F 16.7 °F 76% 30.31 in 10.0 mi SW 6.9 mph - N/A   Clear
7:35 PM 22.8 °F 12.9 °F 16.9 °F 78% 30.31 in 10.0 mi SW 9.2 mph - N/A   Clear
7:55 PM 21.4 °F 11.9 °F 15.3 °F 77% 30.31 in 10.0 mi West 8.1 mph - N/A   Clear
8:15 PM 23.0 °F 11.7 °F 16.5 °F 76% 30.32 in 10.0 mi WSW 11.5 mph - N/A   Clear
8:35 PM 23.0 °F 13.1 °F 16.2 °F 75% 30.32 in 10.0 mi SW 9.2 mph - N/A   Clear
8:55 PM 20.3 °F 11.5 °F 14.9 °F 80% 30.32 in 10.0 mi WSW 6.9 mph - N/A   Clear
9:15 PM 19.4 °F 8.6 °F 15.1 °F 83% 30.32 in 10.0 mi West 9.2 mph - N/A   Clear
9:35 PM 21.4 °F 10.4 °F 15.6 °F 78% 30.32 in 10.0 mi West 10.4 mph - N/A   Clear
9:55 PM 19.4 °F 12.8 °F 14.5 °F 81% 30.33 in 10.0 mi WSW 4.6 mph - N/A   Clear
10:15 PM 17.6 °F 6.4 °F 13.6 °F 84% 30.33 in 10.0 mi West 9.2 mph - N/A   Clear
10:35 PM 16.5 °F 6.0 °F 12.9 °F 86% 30.34 in 10.0 mi West 8.1 mph - N/A   Clear
10:55 PM 15.3 °F 4.4 °F 12.2 °F 88% 30.34 in 10.0 mi WSW 8.1 mph - N/A   Clear
11:15 PM 14.9 °F 4.0 °F 12.2 °F 89% 30.34 in 10.0 mi WSW 8.1 mph - N/A   Clear
11:35 PM 14.5 °F 3.6 °F 11.7 °F 88% 30.34 in 10.0 mi WSW 8.1 mph - N/A   Clear
11:55 PM 14.5 °F 5.7 °F 11.7 °F 88% 30.32 in 10.0 mi WSW 5.8 mph - N/A   Clear